This is the latest recevied weather packets stored in our database for station/object JR4VEV-13. If no packets are shown the sender has not sent any weather packets the latest 10 day(s).
| Time | Temp. | Humidity | Pressure | Rain* | Wind** | Luminosity | Snow |
|---|---|---|---|---|---|---|---|
| 1777078645 | 17.78° C | 52% | 1020.6 hPa | 0 mm | - | - | - |
| 1777078045 | 16.67° C | 55% | 1020.7 hPa | 0 mm | - | - | - |
| 1777077444 | 15.56° C | 58% | 1020.7 hPa | 0 mm | - | - | - |
| 1777076846 | 14.44° C | 59% | 1020.7 hPa | 0 mm | - | - | - |
| 1777076246 | 13.89° C | 61% | 1020.7 hPa | 0 mm | - | - | - |
| 1777075645 | 13.89° C | 60% | 1020.6 hPa | 0 mm | - | - | - |
| 1777075046 | 13.33° C | 63% | 1020.4 hPa | 0 mm | - | - | - |
| 1777074446 | 12.78° C | 62% | 1020.4 hPa | 0 mm | - | - | - |
| 1777073845 | 12.22° C | 65% | 1020.3 hPa | 0 mm | - | - | - |
| 1777073244 | 12.22° C | 66% | 1020 hPa | 0 mm | - | - | - |
| 1777072646 | 11.67° C | 69% | 1020.2 hPa | 0 mm | - | - | - |
| 1777072046 | 11.11° C | 71% | 1020.3 hPa | 0 mm | - | - | - |
| 1777071446 | 10.56° C | 72% | 1020.4 hPa | 0 mm | - | - | - |
| 1777070846 | 10° C | 75% | 1020.3 hPa | 0 mm | - | - | - |
| 1777070244 | 9.44° C | 76% | 1020.6 hPa | 0 mm | - | - | - |
| 1777069648 | 8.89° C | 79% | 1020.7 hPa | 0 mm | - | - | - |
| 1777069046 | 8.33° C | 82% | 1020.7 hPa | 0 mm | - | - | - |
| 1777068445 | 7.78° C | 83% | 1020.6 hPa | 0 mm | - | - | - |
| 1777067845 | 7.22° C | 84% | 1020.7 hPa | 0 mm | - | - | - |
| 1777067244 | 7.22° C | 85% | 1020.7 hPa | 0 mm | - | - | - |
| 1777066646 | 7.22° C | 88% | 1020.7 hPa | 0 mm | - | - | - |
| 1777066045 | 6.67° C | 90% | 1020.4 hPa | 0 mm | - | - | - |
| 1777065446 | 6.11° C | 91% | 1020.4 hPa | 0 mm | - | - | - |
| 1777064846 | 6.11° C | 93% | 1020.3 hPa | 0 mm | - | - | - |
| 1777064245 | 6.11° C | 93% | 1020.1 hPa | 0 mm | - | - | - |
* Rain latest hour (hover to see other rain measurements)
** Current wind speed in m/s (hover to see current wind gust speed)